Back to catalog

STARLINK-34882

AliveCommunicationsVLEO
NORAD 66227·PAYLOAD·🇺🇸 United States

Launched Oct 28, 2025 from Vandenberg Space Force Base

Loading…

Next Passes (next 24 hours)

TLE

FreshSource: CelesTrak SupGP

Epoch: Sep 14, 2026, 22:35 UTC

1 66227C 25244X   26257.94145833  .00033561  00000+0  99189-3 0  2572
2 66227  53.1580  67.6041 0001135  85.4345 167.0444 15.34364129    15

Track STARLINK-34882 in real time with AllMySat

Download on the App Store